Location: Eastview
(35.0756°N, 88.5453°W)
Time: 08:17:19
(UTC+00:00)

DELTA 2 R/B (1) - Pass Details

Date: 22 November 2019
Orbit: 791 x 802 km, 39.6° (Epoch: 13 December)

Event Time Altitude Azimuth Distance (km) Brightness Sun altitude
Rises 23:11:17 0° 249° (WSW) 3,289 9.8 -5.8°
Reaches altitude 10° 23:13:46 10° 249° (WSW) 2,362 7.9 -6.3°
Maximum altitude 23:19:22 88° 339° (NNW) 803 3.6 -7.4°
Enters shadow 23:24:56 10° 70° (ENE) 2,354 5.3 -8.5°
